Location: Arrodets-la-Barthe
(43.0306°N, 0.2829°E)
Time: 14:42:30
(UTC+00:00)

NOAA 19 - Visible Passes

Search period start: 01 April 2023 00:00
Search period end: 11 April 2023 00:00
Orbit: 839 x 861 km, 99.1° (Epoch: 01 April)

Date Brightness Start Highest point End Pass type
(mag) Time Alt. Az. Time Alt. Az. Time Alt. Az.
01 Apr 5.7 20:07:53 10° S 20:13:16 59° WSW 20:18:40 10° NNW visible
02 Apr 5.4 19:55:46 10° S 20:01:14 75° WSW 20:06:43 10° NNW visible
03 Apr 5.2 19:43:44 10° SSE 19:49:12 87° ENE 19:54:42 10° NNW visible
03 Apr 7.8 21:28:20 10° WSW 21:30:32 12° W 21:32:45 10° WNW visible
04 Apr 5.2 19:31:47 10° SSE 19:37:12 69° ENE 19:42:39 10° N visible
04 Apr 7.7 21:15:01 10° SW 21:18:21 16° W 21:21:41 10° NW visible
05 Apr 5.4 19:19:55 10° SE 19:25:14 55° ENE 19:30:32 10° N visible
05 Apr 7.4 21:02:09 10° SW 21:06:11 21° W 21:10:13 10° NW visible
06 Apr 5.6 19:08:08 10° SE 19:13:16 43° ENE 19:18:23 10° N visible
06 Apr 7.1 20:49:30 10° SSW 20:54:02 26° W 20:58:35 10° NW visible
07 Apr 5.9 18:56:26 10° SE 19:01:19 35° ENE 19:06:12 10° N visible
07 Apr 6.7 20:37:01 10° SSW 20:41:55 34° W 20:46:51 10° NNW visible
08 Apr 6.3 20:24:40 10° S 20:29:49 43° W 20:35:01 10° NNW visible
09 Apr 5.8 20:12:25 10° S 20:17:45 55° W 20:23:07 10° NNW visible
10 Apr 5.4 20:00:15 10° S 20:05:41 70° WSW 20:11:09 10° NNW visible
